Location: El Centro
(32.7920°N, 115.5620°W)
Time: 22:41:27
(UTC-08:00)

Amateur Radio Satellites - All Passes

Search period start: 23 November 2014 22:11
Search period end: 24 November 2014 22:11
Location: El Centro, 32.7920°N, 115.5620°W

Satellite Date Start Highest point End Downlink Frequencies (MHz)
Time Altitude Azimuth
AISAT 23 Nov 22:14:28 22:18:26 31° 262° (W) 22:22:24 437.250
POLYITAN 1 23 Nov 22:18:20 22:22:26 49° 100° (E) 22:26:32 437.675
QB50P2 23 Nov 22:21:19 22:25:28 54° 100° (E) 22:29:36 145.880/145.840
JUGNU 23 Nov 22:21:23 22:22:40 11° 162° (SSE) 22:23:58 437.505
TIGRISAT 23 Nov 22:28:53 22:33:19 82° 283° (WNW) 22:37:50 435.000
DUCHIFAT 1 23 Nov 22:28:56 22:33:08 67° 101° (ESE) 22:37:18 145.980
PHONESAT 2.4 23 Nov 22:29:16 22:30:22 11° 221° (SW) 22:31:29 2401.200-2431.200
TISAT 1 23 Nov 22:31:51 22:35:33 29° 72° (ENE) 22:39:14 437.305
SPROUT 23 Nov 22:34:16 22:37:53 26° 71° (ENE) 22:41:30 437.525
CUBEBUG 1 23 Nov 22:35:52 22:40:13 53° 260° (W) 22:44:35 437.445
FUNcube-1 23 Nov 22:35:55 22:36:58 11° 267° (W) 22:38:01 145.935
UNISAT 6 23 Nov 22:41:15 22:45:37 57° 285° (WNW) 22:50:03 437.425
NANOSAT C BR1 23 Nov 22:47:57 22:52:09 69° 284° (WNW) 22:56:19 145.865
AUBIESAT-1 23 Nov 22:48:23 22:49:02 10° 59° (ENE) 22:49:42 437.475
M-CUBED/EXP-1 PRIME 23 Nov 22:50:46 22:52:29 13° 60° (ENE) 22:54:16 437.505
QB50P1 23 Nov 22:57:36 23:01:42 51° 285° (WNW) 23:05:46 145.935-145.965
ANTELSAT 23 Nov 23:10:16 23:13:59 27° 289° (WNW) 23:17:46 437.575/2403.000
ESTCUBE 1 23 Nov 23:17:19 23:20:25 18° 265° (W) 23:23:32 437.505/2401.250
BUGSAT 1 23 Nov 23:21:06 23:24:43 31° 288° (WNW) 23:28:18 437.445
POPSAT HIP 1 23 Nov 23:22:34 23:26:04 26° 289° (WNW) 23:29:34 437.405
CUSAT 1 23 Nov 23:28:09 23:32:46 48° 82° (E) 23:38:54 437.405
ISS 23 Nov 23:40:46 23:43:52 39° 320° (NW) 23:46:59 145.825
DANDE 23 Nov 23:43:35 23:48:07 57° 82° (E) 23:54:15 436.750
ITUPSAT 1 23 Nov 23:49:25 23:53:36 31° 71° (ENE) 23:57:48 437.325
POLYITAN 1 23 Nov 23:56:46 23:57:55 11° 293° (WNW) 23:59:04 437.675
QB50P2 24 Nov 00:00:41 00:00:53 10° 294° (WNW) 00:01:04 145.880/145.840
SWISSCUBE 24 Nov 00:00:51 00:05:25 45° 73° (ENE) 00:10:00 437.505
RS-15 24 Nov 00:01:45 00:11:46 35° 48° (NE) 00:22:05 29.354- 29.394
JUGNU 24 Nov 00:06:51 00:11:01 20° 171° (S) 00:15:12 437.505
TISAT 1 24 Nov 00:08:24 00:11:22 18° 265° (W) 00:14:20 437.305
SPROUT 24 Nov 00:10:41 00:13:54 20° 264° (W) 00:17:08 437.525
SRMSAT 24 Nov 00:14:28 00:17:14 13° 164° (SSE) 00:19:59 437.500
AUBIESAT-1 24 Nov 00:19:39 00:23:24 54° 256° (WSW) 00:27:32 437.475
M-CUBED/EXP-1 PRIME 24 Nov 00:23:23 00:27:02 43° 257° (WSW) 00:31:02 437.505
BEESAT 24 Nov 00:32:12 00:36:59 86° 257° (WSW) 00:41:48 436.000
STARS 24 Nov 01:00:52 01:04:19 23° 70° (ENE) 01:07:46 437.465
CUSAT 1 24 Nov 01:12:45 01:15:52 16° 266° (W) 01:19:28 437.405
MaSat-1 24 Nov 01:21:17 01:23:27 32° 250° (WSW) 01:25:42 437.345
Oscar 19 24 Nov 01:23:56 01:29:06 79° 284° (WNW) 01:34:16 437.125/150
ITUPSAT 1 24 Nov 01:27:45 01:31:27 22° 264° (W) 01:35:10 437.325
DANDE 24 Nov 01:29:29 01:31:36 13° 266° (W) 01:33:56 436.750
KKS-1 24 Nov 01:35:34 01:40:02 88° 257° (WSW) 01:44:31 437.445
YUBILEINY 24 Nov 01:36:39 01:44:47 44° 88° (E) 01:52:54 435.215
SWISSCUBE 24 Nov 01:40:51 01:43:27 15° 266° (W) 01:46:04 437.505
JUGNU 24 Nov 01:54:51 01:59:27 23° 181° (S) 02:04:03 437.505
SRMSAT 24 Nov 02:01:19 02:05:46 22° 174° (S) 02:10:12 437.500
ITAMSAT 1 24 Nov 02:12:03 02:17:13 72° 285° (WNW) 02:22:20 435.822/435.867
RS-15 24 Nov 02:13:35 02:24:42 64° 248° (WSW) 02:36:20 29.354- 29.394
Gurwin Techsat 1B 24 Nov 02:31:11 02:36:31 84° 284° (WNW) 02:41:48 435.225
STARS 24 Nov 02:37:02 02:40:39 25° 263° (W) 02:44:17 437.465
HORYU 2 24 Nov 02:47:16 02:51:43 63° 101° (E) 02:56:10 437.375
AO-7 24 Nov 03:25:42 03:33:40 46° 101° (ESE) 03:41:35 29.400- 29.500
YUBILEINY 24 Nov 03:33:48 03:41:34 34° 285° (WNW) 03:49:22 435.215
JAS-2 24 Nov 03:35:54 03:39:28 15° 88° (E) 03:42:50 435.910
SO-50 24 Nov 03:39:21 03:43:48 71° 299° (WNW) 03:48:24 436.795
JUGNU 24 Nov 03:44:00 03:47:52 18° 191° (SSW) 03:51:45 437.505
SRMSAT 24 Nov 03:49:48 03:54:22 23° 184° (S) 03:58:55 437.500
PCSat 24 Nov 03:54:51 03:58:08 16° 52° (NE) 04:01:25 145.827
MOZHAYETS 4 24 Nov 04:01:06 04:05:40 85° 77° (ENE) 04:10:18
PRISM 24 Nov 04:24:04 04:27:29 25° 71° (ENE) 04:30:56 437.425
Cubesat XI-IV 24 Nov 04:38:44 04:39:08 10° 92° (E) 04:39:32 437.490
O/OREOS (USA 219) 24 Nov 05:00:23 05:04:12 27° 103° (ESE) 05:08:00 437.305
CUTE-I 24 Nov 05:17:00 05:21:33 28° 97° (E) 05:26:03 437.470
STRAND 1 24 Nov 05:17:29 05:22:12 38° 71° (ENE) 05:26:56 437.568
JAS-2 24 Nov 05:18:16 05:25:17 71° 286° (WNW) 05:31:25 435.910
BEESAT 3 24 Nov 05:18:44 05:22:51 57° 60° (ENE) 05:26:55 437.485
AO-7 24 Nov 05:18:52 05:26:07 35° 297° (WNW) 05:33:24 29.400- 29.500
BEESAT 2 24 Nov 05:32:24 05:36:36 75° 62° (ENE) 05:40:44 435.950
CUBESAT XI-V 24 Nov 05:36:29 05:41:07 60° 75° (ENE) 05:45:47 437.345
PCSat 24 Nov 05:36:37 05:41:58 63° 248° (WSW) 05:47:17 145.827
SRMSAT 24 Nov 05:39:31 05:42:55 16° 194° (SSW) 05:46:19 437.500
AIST 2 24 Nov 05:57:40 06:01:57 67° 61° (ENE) 06:06:08 435.215
PRISM 24 Nov 05:59:48 06:02:57 21° 264° (W) 06:06:07 437.425
ISS 24 Nov 06:12:48 06:15:39 26° 37° (NE) 06:18:29 145.825
AIST 1 24 Nov 06:13:52 06:17:51 33° 79° (E) 06:21:46
Cubesat XI-IV 24 Nov 06:14:20 06:19:39 73° 285° (WNW) 06:24:56 437.490
O/OREOS (USA 219) 24 Nov 06:40:06 06:43:32 21° 297° (WNW) 06:46:58 437.305
CUTE-I 24 Nov 06:57:00 07:01:29 29° 291° (WNW) 07:05:57 437.470
STRAND 1 24 Nov 06:57:44 07:01:26 20° 265° (W) 07:05:10 437.568
CUBESAT XI-V 24 Nov 07:18:13 07:18:52 10° 268° (W) 07:19:31 437.345
GONETS M04 24 Nov 07:26:13 07:34:31 49° 89° (E) 07:42:51
SEEDS 24 Nov 07:35:03 07:35:31 10° 92° (E) 07:35:59 437.485
BRITE-PL 24 Nov 07:44:43 07:47:10 15° 95° (E) 07:49:38 437.365/2234.400
ISS 24 Nov 07:49:34 07:52:11 22° 231° (SW) 07:54:47 145.825
AIST 1 24 Nov 07:52:42 07:55:08 15° 273° (W) 07:57:34
HO-68 24 Nov 07:53:52 08:00:15 34° 98° (E) 08:06:35 435.675
AAUSAT CUBESAT 2 24 Nov 07:54:20 07:56:27 14° 94° (E) 07:58:33 437.432
CANX-2 24 Nov 07:57:24 08:01:04 27° 97° (E) 08:04:43 2200.000
COMPASS 1 24 Nov 08:07:08 08:10:31 23° 96° (E) 08:13:53 437.405
DOVE 4 24 Nov 08:29:47 08:33:25 28° 98° (E) 08:37:07 437.250
ANTELSAT 24 Nov 08:31:19 08:32:42 11° 67° (ENE) 08:34:04 437.575/2403.000
CUTE 1.7 & AOD 2 24 Nov 08:31:49 08:36:06 67° 101° (E) 08:40:22 437.475
UKube-1 24 Nov 08:50:01 08:53:41 26° 97° (E) 08:57:19 .
FUNcube-1 24 Nov 08:51:20 08:53:07 12° 94° (E) 08:54:54 145.935
Oscar 11 24 Nov 09:02:20 09:06:31 45° 99° (E) 09:10:40 145.826/435.025
GOMX 1 24 Nov 09:02:36 09:06:45 78° 283° (WNW) 09:11:02 467.674
CUBEBUG 2 24 Nov 09:06:42 09:10:22 28° 97° (E) 09:14:06 437.445
SEEDS 24 Nov 09:07:27 09:11:34 50° 285° (WNW) 09:15:42 437.485
POLYITAN 1 24 Nov 09:08:17 09:11:35 22° 70° (ENE) 09:14:52 437.675
QB50P2 24 Nov 09:10:56 09:14:21 24° 71° (ENE) 09:17:46 145.880/145.840
UWE-3 24 Nov 09:10:58 09:14:36 27° 97° (E) 09:18:16 435.000/436.395/437.385
DUCHIFAT 1 24 Nov 09:17:59 09:21:37 28° 72° (ENE) 09:25:16 145.980
CINEMA 3 24 Nov 09:19:20 09:23:33 69° 101° (ESE) 09:27:54 145.822/145.860
BRITE-PL 24 Nov 09:22:07 09:25:45 30° 287° (WNW) 09:29:25 437.365/2234.400
DX 1 24 Nov 09:23:07 09:27:27 72° 102° (ESE) 09:31:46 434.975-435.025
TIGRISAT 24 Nov 09:23:47 09:27:55 49° 75° (ENE) 09:32:01 435.000
GONETS M04 24 Nov 09:24:00 09:31:28 31° 286° (WNW) 09:39:02
AAUSAT CUBESAT 2 24 Nov 09:28:19 09:32:13 38° 286° (WNW) 09:36:08 437.432
CANX-2 24 Nov 09:33:40 09:36:48 20° 290° (WNW) 09:39:55 2200.000
UNISAT 6 24 Nov 09:36:13 09:40:29 73° 76° (ENE) 09:44:45 437.425
NANOSAT C BR1 24 Nov 09:36:33 09:40:39 48° 74° (ENE) 09:44:45 145.865
HO-68 24 Nov 09:41:23 09:47:52 38° 293° (WNW) 09:54:19 435.675
COMPASS 1 24 Nov 09:42:47 09:46:07 23° 289° (WNW) 09:49:27 437.405
DELFI C3 24 Nov 09:42:47 09:46:53 64° 284° (WNW) 09:50:58 145.870
VELOX 1 24 Nov 09:44:54 09:48:56 34° 98° (E) 09:52:56 145.980
QB50P1 24 Nov 09:46:02 09:50:16 64° 76° (ENE) 09:54:29 145.935-145.965
HUMSAT D 24 Nov 09:47:24 09:51:15 35° 98° (E) 09:55:07 437.325/437.525
50 SAT 24 Nov 09:48:56 09:52:31 30° 98° (E) 09:56:07 437.505
ZACube-1 24 Nov 09:49:48 09:54:02 70° 101° (ESE) 09:58:21 437.345
ANTELSAT 24 Nov 10:04:55 10:09:03 48° 260° (W) 10:13:11 437.575/2403.000
BUGSAT 1 24 Nov 10:06:20 10:10:37 86° 257° (WSW) 10:14:53 437.445
DOVE 4 24 Nov 10:08:10 10:11:00 18° 290° (WNW) 10:13:52 437.250
AISAT 24 Nov 10:09:41 10:14:06 72° 102° (ESE) 10:18:29 437.250
POPSAT HIP 1 24 Nov 10:10:36 10:14:49 62° 259° (W) 10:19:03 437.405
FUNcube-1 24 Nov 10:25:36 10:29:36 41° 286° (WNW) 10:33:39 145.935
UKube-1 24 Nov 10:26:26 10:29:40 21° 291° (WNW) 10:32:53 .
CUBEBUG 1 24 Nov 10:29:46 10:33:50 38° 99° (E) 10:37:52 437.445
Oscar 11 24 Nov 10:40:20 10:42:15 13° 293° (WNW) 10:44:10 145.826/435.025
CUBEBUG 2 24 Nov 10:43:52 10:46:52 19° 290° (WNW) 10:49:55 437.445
POLYITAN 1 24 Nov 10:43:55 10:47:23 24° 263° (W) 10:50:51 437.675
QB50P2 24 Nov 10:46:50 10:50:10 22° 264° (W) 10:53:30 145.880/145.840
UWE-3 24 Nov 10:47:53 10:50:57 20° 289° (WNW) 10:54:05 435.000/436.395/437.385
DUCHIFAT 1 24 Nov 10:54:28 10:57:28 19° 265° (W) 11:00:27 145.980
TIGRISAT 24 Nov 11:04:33 11:04:53 10° 267° (W) 11:05:13 435.000
ESTCUBE 1 24 Nov 11:13:11 11:17:39 59° 285° (WNW) 11:22:05 437.505/2401.250
NANOSAT C BR1 24 Nov 11:15:51 11:16:44 11° 267° (W) 11:17:38 145.865
VELOX 1 24 Nov 11:22:23 11:25:13 17° 292° (WNW) 11:28:02 145.980
HUMSAT D 24 Nov 11:24:27 11:26:44 15° 291° (WNW) 11:29:03 437.325/437.525
50 SAT 24 Nov 11:25:02 11:27:35 16° 291° (WNW) 11:30:08 437.505
ITAMSAT 1 24 Nov 11:50:30 11:51:54 11° 63° (ENE) 11:53:18 435.822/435.867
YUBILEINY 24 Nov 11:54:18 11:59:09 16° 68° (ENE) 12:03:57 435.215
TISAT 1 24 Nov 11:56:36 12:00:49 80° 283° (WNW) 12:05:00 437.305
ITUPSAT 1 24 Nov 11:57:04 11:58:22 11° 92° (E) 11:59:41 437.325
SPROUT 24 Nov 12:00:49 12:05:06 83° 283° (WNW) 12:09:22 437.525
SWISSCUBE 24 Nov 12:07:05 12:10:12 17° 94° (E) 12:13:17 437.505
AUBIESAT-1 24 Nov 12:07:09 12:10:49 21° 99° (E) 12:14:23 437.475
CUBEBUG 1 24 Nov 12:07:25 12:09:51 15° 292° (WNW) 12:12:15 437.445
M-CUBED/EXP-1 PRIME 24 Nov 12:10:48 12:14:52 25° 100° (E) 12:18:48 437.505
SO-50 24 Nov 12:15:15 12:19:38 32° 55° (NE) 12:24:00 436.795
Oscar 19 24 Nov 12:36:20 12:41:26 86° 257° (WSW) 12:46:34 437.125/150
BEESAT 24 Nov 12:37:29 12:41:52 34° 98° (E) 12:46:11 436.000
CUSAT 1 24 Nov 12:38:37 12:41:38 87° 99° (E) 12:44:16 437.405
DANDE 24 Nov 12:56:51 12:59:58 56° 278° (W) 13:02:38 436.750
ITAMSAT 1 24 Nov 13:25:28 13:30:41 75° 258° (WSW) 13:35:55 435.822/435.867
ITUPSAT 1 24 Nov 13:31:50 13:36:34 58° 286° (WNW) 13:41:15 437.325
KKS-1 24 Nov 13:32:01 13:35:41 25° 97° (E) 13:39:20 437.445
PHONESAT 2.4 24 Nov 13:39:44 13:42:56 28° 144° (SE) 13:46:09 2401.200-2431.200
AUBIESAT-1 24 Nov 13:41:19 13:45:48 36° 293° (WNW) 13:50:10 437.475
HORYU 2 24 Nov 13:41:55 13:45:52 33° 72° (ENE) 13:49:50 437.375
SWISSCUBE 24 Nov 13:43:42 13:48:09 39° 288° (WNW) 13:52:33 437.505
M-CUBED/EXP-1 PRIME 24 Nov 13:45:30 13:49:48 31° 294° (WNW) 13:54:00 437.505
Gurwin Techsat 1B 24 Nov 13:47:45 13:53:03 84° 257° (WSW) 13:58:24 435.225
YUBILEINY 24 Nov 13:48:13 13:56:57 86° 265° (W) 14:05:37 435.215
SO-50 24 Nov 13:56:04 14:00:01 25° 250° (WSW) 14:03:58 436.795
VERMONT LUNAR 24 Nov 13:57:18 14:00:51 58° 150° (SSE) 14:04:26 437.305
BEESAT 24 Nov 14:16:00 14:19:25 20° 292° (WNW) 14:22:50 436.000
AO-7 24 Nov 14:19:56 14:27:34 43° 65° (ENE) 14:35:13 29.400- 29.500
RS-15 24 Nov 14:21:21 14:30:23 30° 105° (ESE) 14:39:17 29.354- 29.394
STARS 24 Nov 14:30:42 14:35:07 85° 103° (ESE) 14:39:30 437.465
MaSat-1 24 Nov 14:45:27 14:48:38 85° 292° (WNW) 14:51:31 437.345
KKS-1 24 Nov 15:08:42 15:12:10 23° 290° (WNW) 15:15:38 437.445
O/OREOS (USA 219) 24 Nov 15:14:31 15:18:16 26° 65° (ENE) 15:22:01 437.305
PHONESAT 2.4 24 Nov 15:17:58 15:21:36 53° 338° (NNW) 15:25:15 2401.200-2431.200
HORYU 2 24 Nov 15:19:41 15:22:35 17° 265° (W) 15:25:29 437.375
JAS-2 24 Nov 15:23:34 15:30:15 36° 67° (ENE) 15:37:12 435.910
VERMONT LUNAR 24 Nov 15:36:09 15:39:29 33° 345° (NNW) 15:42:49 437.305
YUBILEINY 24 Nov 15:49:13 15:52:20 12° 282° (WNW) 15:55:26 435.215
Cubesat XI-IV 24 Nov 15:55:34 15:57:48 13° 64° (ENE) 16:00:02 437.490
MOZHAYETS 4 24 Nov 16:01:22 16:05:24 29° 97° (E) 16:09:25
AO-7 24 Nov 16:12:52 16:20:17 36° 261° (W) 16:27:46 29.400- 29.500
RS-15 24 Nov 16:31:04 16:41:54 62° 302° (WNW) 16:52:44 29.354- 29.394
CUTE-I 24 Nov 16:34:37 16:39:17 31° 70° (ENE) 16:43:57 437.470
O/OREOS (USA 219) 24 Nov 16:54:03 16:57:29 22° 258° (WSW) 17:00:55 437.305
PHONESAT 2.4 24 Nov 16:57:46 17:00:53 25° 355° (N) 17:04:00 2401.200-2431.200
JAS-2 24 Nov 17:08:05 17:14:59 42° 263° (W) 17:22:18 435.910
VERMONT LUNAR 24 Nov 17:15:36 17:18:35 23° 2° (N) 17:21:33 437.305
Cubesat XI-IV 24 Nov 17:31:54 17:37:14 69° 258° (WSW) 17:42:36 437.490
STRAND 1 24 Nov 17:33:29 17:36:58 18° 95° (E) 17:40:25 437.568
CUBESAT XI-V 24 Nov 17:38:49 17:42:22 21° 95° (E) 17:45:53 437.345
MOZHAYETS 4 24 Nov 17:38:51 17:42:25 22° 290° (WNW) 17:45:59
GONETS M04 24 Nov 17:43:37 17:49:18 18° 69° (ENE) 17:54:56
PRISM 24 Nov 17:46:21 17:50:36 80° 102° (ESE) 17:54:48 437.425
CUTE-I 24 Nov 18:14:49 18:19:16 27° 263° (W) 18:23:44 437.470
HO-68 24 Nov 18:20:02 18:24:12 17° 60° (ENE) 18:28:23 435.675
PCSat 24 Nov 18:31:09 18:35:53 32° 108° (ESE) 18:40:39 145.827
PHONESAT 2.4 24 Nov 18:37:00 18:40:20 30° 12° (NNE) 18:43:39 2401.200-2431.200
AIST 1 24 Nov 18:39:13 18:42:48 25° 90° (E) 18:46:25
CANX-2 24 Nov 18:48:38 18:50:08 12° 67° (ENE) 18:51:38 2200.000
RS-15 24 Nov 18:50:47 18:57:04 16° 329° (NNW) 19:03:25 29.354- 29.394
BRITE-PL 24 Nov 18:51:44 18:54:32 15° 69° (ENE) 18:57:15 437.365/2234.400
VERMONT LUNAR 24 Nov 18:54:08 18:57:37 42° 19° (NNE) 19:01:04 437.305
BEESAT 3 24 Nov 19:09:56 19:13:34 32° 112° (ESE) 19:17:15 437.485
STRAND 1 24 Nov 19:11:30 19:16:15 40° 288° (WNW) 19:20:58 437.568
CUBESAT XI-V 24 Nov 19:15:45 19:19:46 29° 289° (WNW) 19:23:44 437.345
CUTE 1.7 & AOD 2 24 Nov 19:21:12 19:24:45 27° 72° (ENE) 19:28:18 437.475
BEESAT 2 24 Nov 19:23:56 19:27:47 42° 114° (ESE) 19:31:44 435.950
DOVE 4 24 Nov 19:32:04 19:35:26 20° 71° (ENE) 19:38:42 437.250
GONETS M04 24 Nov 19:38:09 19:46:58 78° 267° (W) 19:55:41
UKube-1 24 Nov 19:42:28 19:44:45 14° 67° (ENE) 19:47:02 .
AIST 2 24 Nov 19:52:04 19:56:01 42° 113° (ESE) 20:00:02 435.215
Oscar 11 24 Nov 19:53:48 19:56:59 21° 70° (ENE) 20:00:11 145.826/435.025
SEEDS 24 Nov 19:55:22 19:59:29 62° 76° (ENE) 20:03:38 437.485
CUBEBUG 2 24 Nov 20:02:37 20:04:57 15° 69° (ENE) 20:07:16 437.445
HO-68 24 Nov 20:03:51 20:11:02 80° 255° (WSW) 20:18:15 435.675
UWE-3 24 Nov 20:06:01 20:08:05 13° 68° (ENE) 20:10:08 435.000/436.395/437.385
GOMX 1 24 Nov 20:06:04 20:10:59 69° 76° (ENE) 20:15:34 467.674
PCSat 24 Nov 20:14:37 20:19:14 28° 303° (WNW) 20:23:53 145.827
DX 1 24 Nov 20:14:43 20:18:41 35° 72° (ENE) 20:22:40 434.975-435.025
AAUSAT CUBESAT 2 24 Nov 20:14:58 20:19:07 80° 77° (ENE) 20:23:17 437.432
PHONESAT 2.4 24 Nov 20:15:39 20:19:22 79° 208° (SSW) 20:23:04 2401.200-2431.200
AIST 1 24 Nov 20:17:06 20:20:22 20° 284° (WNW) 20:23:40
CINEMA 3 24 Nov 20:17:19 20:21:26 37° 74° (ENE) 20:25:24 145.822/145.860
CANX-2 24 Nov 20:21:35 20:25:37 45° 261° (W) 20:29:41 2200.000
DELFI C3 24 Nov 20:27:22 20:31:12 42° 74° (ENE) 20:35:04 145.870
BRITE-PL 24 Nov 20:27:39 20:32:42 50° 260° (W) 20:37:23 437.365/2234.400
COMPASS 1 24 Nov 20:29:24 20:33:28 57° 260° (W) 20:37:35 437.405
VERMONT LUNAR 24 Nov 20:32:42 20:36:05 38° 213° (SSW) 20:39:28 437.305
50 SAT 24 Nov 20:36:08 20:37:26 11° 68° (ENE) 20:38:45 437.505
HUMSAT D 24 Nov 20:37:06 20:39:30 15° 69° (ENE) 20:41:53 437.325/437.525
VELOX 1 24 Nov 20:39:28 20:42:39 19° 69° (ENE) 20:45:50 145.980
ZACube-1 24 Nov 20:42:18 20:46:02 31° 73° (ENE) 20:49:43 437.345
BEESAT 3 24 Nov 20:48:57 20:51:50 18° 307° (NW) 20:54:46 437.485
CUTE 1.7 & AOD 2 24 Nov 20:57:39 21:00:38 19° 265° (W) 21:03:38 437.475
AISAT 24 Nov 21:03:47 21:07:56 37° 73° (ENE) 21:12:04 437.250
BEESAT 2 24 Nov 21:03:55 21:06:17 15° 309° (NW) 21:08:40 435.950
DOVE 4 24 Nov 21:08:49 21:13:01 31° 262° (W) 21:17:01 437.250
UKube-1 24 Nov 21:16:25 21:20:32 41° 260° (W) 21:24:39 .
FUNcube-1 24 Nov 21:17:08 21:21:24 86° 77° (ENE) 21:25:35 145.935
TIGRISAT 24 Nov 21:21:13 21:23:48 15° 95° (E) 21:26:25 435.000
CUBEBUG 1 24 Nov 21:22:39 21:25:53 20° 69° (ENE) 21:29:07 437.445
NANOSAT C BR1 24 Nov 21:29:01 21:30:12 11° 93° (E) 21:31:23 145.865
Oscar 11 24 Nov 21:29:22 21:32:58 26° 263° (W) 21:36:35 145.826/435.025
AIST 2 24 Nov 21:32:14 21:34:50 16° 309° (NW) 21:37:27 435.215
UNISAT 6 24 Nov 21:33:21 21:36:49 22° 96° (E) 21:40:20 437.425
CUBEBUG 2 24 Nov 21:37:21 21:41:21 37° 261° (W) 21:45:16 437.445
QB50P1 24 Nov 21:37:36 21:40:00 15° 94° (E) 21:42:23 145.935-145.965
UWE-3 24 Nov 21:40:16 21:44:17 39° 261° (W) 21:48:15 435.000/436.395/437.385
GONETS M04 24 Nov 21:40:38 21:42:12 11° 283° (WNW) 21:43:45
DX 1 24 Nov 21:52:17 21:54:59 16° 265° (W) 21:57:41 434.975-435.025
BUGSAT 1 24 Nov 21:54:41 21:57:34 19° 95° (E) 22:00:25 437.445
PHONESAT 2.4 24 Nov 21:56:08 21:57:45 13° 221° (SW) 21:59:22 2401.200-2431.200
CINEMA 3 24 Nov 21:56:12 21:58:42 15° 265° (W) 22:01:09 145.822/145.860
POPSAT HIP 1 24 Nov 22:01:07 22:04:48 29° 98° (E) 22:08:27 437.405
ANTELSAT 24 Nov 22:01:14 22:05:33 47° 100° (E) 22:09:57 437.575/2403.000
DELFI C3 24 Nov 22:05:36 22:06:41 11° 267° (W) 22:07:45 145.870
JUGNU 24 Nov 22:05:41 22:07:44 12° 163° (SSE) 22:09:48 437.505
